Ask Your Question

dcconner's profile - karma

dcconner's karma change log

15 0 AMCL and gmapping combination problem ( 2019-06-25 23:59:30 -0600 )

0 -15 AMCL and gmapping combination problem ( 2019-06-25 23:59:29 -0600 )

15 0 AMCL and gmapping combination problem ( 2019-06-25 23:59:28 -0600 )

0 -10 Is there a simple way to find ROS headers in CMake without catkin? ( 2019-06-03 11:36:20 -0600 )

10 0 Is there a simple way to find ROS headers in CMake without catkin? ( 2019-06-03 11:35:46 -0600 )

15 0 FlexBE does but does not connect ( 2019-05-20 02:29:47 -0600 )

10 0 FlexBE does but does not connect ( 2018-09-06 10:48:52 -0600 )

10 0 Suggest good example of multi-threading with ROS? ( 2018-03-09 07:11:17 -0600 )

10 0 Suggest good example of multi-threading with ROS? ( 2018-03-09 07:11:15 -0600 )

0 -10 Suggest good example of multi-threading with ROS? ( 2018-03-09 07:11:12 -0600 )

10 0 Suggest good example of multi-threading with ROS? ( 2018-03-09 07:11:12 -0600 )

10 0 Is there a simple way to find ROS headers in CMake without catkin? ( 2018-02-16 12:50:07 -0600 )

10 0 How can i send markers to specified position along with point cloud, inside rviz ? ( 2017-05-24 07:26:30 -0600 )

2 0 multiple robots in ROS kinetic with Gazebo 7 ( 2016-12-20 11:16:31 -0600 )

10 0 Suggest good example of multi-threading with ROS? ( 2016-07-28 15:47:07 -0600 )

10 0 how to get Twist.h file for joystick controled turtlesim? ( 2016-07-27 03:05:35 -0600 )

15 0 how to get Twist.h file for joystick controled turtlesim? ( 2016-07-27 03:05:32 -0600 )

15 0 How can i send markers to specified position along with point cloud, inside rviz ? ( 2016-07-07 21:03:58 -0600 )

10 0 How can i send markers to specified position along with point cloud, inside rviz ? ( 2016-07-07 21:03:54 -0600 )

10 0 How can i send markers to specified position along with point cloud, inside rviz ? ( 2016-07-07 17:03:26 -0600 )

10 0 How can i send markers to specified position along with point cloud, inside rviz ? ( 2016-07-07 12:31:50 -0600 )

2 0 Is there a simple way to find ROS headers in CMake without catkin? ( 2016-07-07 11:26:46 -0600 )

0 -10 Suggest good example of multi-threading with ROS? ( 2016-06-03 01:36:24 -0600 )

2 0 cv2 (2.4.8) missing DIST_L2 for distanceTransform? ( 2016-04-04 07:51:36 -0600 )

10 0 Suggest good example of multi-threading with ROS? ( 2016-02-16 01:48:34 -0600 )

10 0 Suggest good example of multi-threading with ROS? ( 2016-02-15 07:24:09 -0600 )

10 0 Suggest good example of multi-threading with ROS? ( 2016-02-14 15:13:44 -0600 )

10 0 Suggest good example of multi-threading with ROS? ( 2016-02-12 09:26:04 -0600 )

10 0 Suggest good example of multi-threading with ROS? ( 2015-12-10 23:26:14 -0600 )

10 0 Suggest good example of multi-threading with ROS? ( 2015-12-09 10:49:04 -0600 )

10 0 Suggest good example of multi-threading with ROS? ( 2015-10-31 07:53:19 -0600 )

10 0 Suggest good example of multi-threading with ROS? ( 2015-10-30 18:01:37 -0600 )

10 0 Suggest good example of multi-threading with ROS? ( 2014-07-04 11:34:59 -0600 )

10 0 Best practice for incorporating catkin into larger CMake project? ( 2014-01-21 05:58:09 -0600 )

10 0 Suggest good example of multi-threading with ROS? ( 2014-01-14 03:53:09 -0600 )

2 0 rosparam returns string not yaml array ( 2013-11-06 02:32:58 -0600 )

10 0 rosparam returns string not yaml array ( 2013-11-03 22:05:14 -0600 )

10 0 Suggest good example of multi-threading with ROS? ( 2013-07-17 16:28:18 -0600 )

10 0 Best practice for incorporating catkin into larger CMake project? ( 2013-05-27 14:35:48 -0600 )

10 0 Best practice for incorporating catkin into larger CMake project? ( 2013-05-17 13:43:15 -0600 )

10 0 Are nodes built from source using boost-1.48 compatible with nodes built using ROS debian packages and default boost-1.46? ( 2013-05-17 09:21:28 -0600 )

10 0 Best practice for incorporating catkin into larger CMake project? ( 2013-05-17 07:36:03 -0600 )

10 0 Best practice for incorporating catkin into larger CMake project? ( 2013-04-29 16:27:40 -0600 )

10 0 Best practice for incorporating catkin into larger CMake project? ( 2013-04-29 10:43:45 -0600 )

15 0 Gazebo stuck waiting for Master in Groovy ( 2013-03-28 12:07:43 -0600 )

2 0 Does tab completion work in catkin workspaces under groovy? ( 2013-03-07 01:52:35 -0600 )

10 0 Suggest good example of multi-threading with ROS? ( 2013-02-27 01:44:58 -0600 )

10 0 Suggest good example of multi-threading with ROS? ( 2013-02-26 05:07:50 -0600 )